Location: Shannon
(40.5500°S, 175.4167°E)
Time: 21:15:34
(UTC+00:00)

Cosmos 1818 - Pass Details

Date: 17 November 2025
Orbit: 776 x 795 km, 65.0° (Epoch: 06 December)

Event Time Altitude Azimuth Distance (km) Brightness Sun altitude
Rises 14:38:49 0° 211° (SSW) 3,291 7.0 -20.2°
Reaches altitude 10° 14:41:16 10° 209° (SSW) 2,357 6.3 -19.9°
Maximum altitude 14:46:41 74° 123° (ESE) 819 3.7 -19.3°
Drops below altitude 10° 14:52:03 10° 37° (NE) 2,337 5.9 -18.6°
Sets 14:54:28 0° 35° (NE) 3,260 6.6 -18.3°
